Fernie, Canada 16 day weather forecast

Slopes altitude range 1065 m - 1925m

Number of lifts: 9 Pistes: -1km

In some cases the lift and piste totals shown are for the ski domain (e.g. Three Valleys) rather than individual resort (e.g. Courchevel)

Overview

The 16 day weather forecast is fully updated 4 times every day.

    • Sun 16 JUN 2019
    • Sun 16
    • 7C 10C
    • Mon 17 JUN 2019
    • Mon 17
    • 7C 10C
    • Tue 18 JUN 2019
    • Tue 18
    • 9C 10C
    • Wed 19 JUN 2019
    • Wed 19
    • 7C 11C
    • Thu 20 JUN 2019
    • Thu 20
    • 1C 5C
    • Fri 21 JUN 2019
    • Fri 21
    • 3C 4C
    • Sat 22 JUN 2019
    • Sat 22
    • 2C 6C
    • Sun 23 JUN 2019
    • Sun 23
    • 6C 8C
    • Mon 24 JUN 2019
    • Mon 24
    • 5C 7C
    • Tue 25 JUN 2019
    • Tue 25
    • 4C 7C
    • Wed 26 JUN 2019
    • Wed 26
    • 8C 20C
    • Thu 27 JUN 2019
    • Thu 27
    • 5C 18C
    • Fri 28 JUN 2019
    • Fri 28
    • 3C 15C
    • Sat 29 JUN 2019
    • Sat 29
    • 1C 17C
    • Sun 30 JUN 2019
    • Sun 30
    • 5C 10C
    • Mon 01 JUL 2019
    • Mon 01
    • 4C 20C

Date:

Time Type 0°C level Temp Chill Snow Cloud Speed Gust Dir Press
12:00 3329m 10°C 10_4 0cm 89% 4mph 4mph 1016mB
15:00 3351m 15°C 15_3 0cm 61% 3mph 4mph 1015mB
18:00 3443m 20°C 20_1 0cm 44% 1mph 2mph 1013mB
21:00 3502m 16°C 16_5 0cm 93% 5mph 5mph 1012mB
0:00 3505m 16°C 16_4 0cm 96% 4mph 6mph 1012mB
3:00 3564m 13°C 13_4 0cm 76% 4mph 5mph 1012mB
6:00 3409m 10°C 10_2 0cm 87% 2mph 2mph 1014mB
9:00 3572m 8°C 8_2 0cm 100% 2mph 3mph 1015mB
12:00 3553m 10°C 10_2 0cm 99% 2mph 3mph 1015mB
15:00 3525m 14°C 14_1 0cm 100% 1mph 3mph 1014mB
18:00 3633m 19°C 19_5 0cm 100% 5mph 5mph 1013mB
21:00 3625m 19°C 19_5 0cm 100% 5mph 5mph 1012mB
0:00 3656m 19°C 19_3 0cm 77% 3mph 8mph 1011mB
3:00 3892m 14°C 14_4 0cm 55% 4mph 6mph 1011mB
6:00 3915m 10°C 10_3 0cm 40% 3mph 4mph 1012mB
9:00 3854m 10°C 10_4 0cm 94% 4mph 5mph 1011mB
12:00 4120m 10°C 10_4 0cm 97% 4mph 6mph 1010mB
15:00 3859m 14°C 14_6 0cm 99% 6mph 9mph 1010mB
18:00 3827m 20°C 20_6 0cm 50% 6mph 9mph 1010mB
21:00 3639m 20°C 20_11 0cm 8% 11mph 13mph 1009mB
0:00 3745m 20°C 20_10 0cm 50% 10mph 15mph 1008mB
3:00 3756m 17°C 17_9 0cm 76% 9mph 24mph 1009mB
6:00 3614m 11°C 11_6 0cm 47% 6mph 12mph 1010mB
9:00 3556m 9°C 9_5 0cm 78% 5mph 9mph 1008mB
12:00 3261m 11°C 11_5 0cm 57% 5mph 9mph 1006mB
15:00 2894m 12°C 12_10 0cm 5% 10mph 20mph 1005mB
18:00 2958m 15°C 15_12 0cm 3% 12mph 20mph 1006mB
21:00 2989m 16°C 16_13 0cm 95% 13mph 19mph 1005mB
0:00 2951m 15°C 15_14 0cm 97% 14mph 18mph 1005mB
3:00 2819m 10°C 10_8 0cm 44% 8mph 18mph 1005mB
6:00 2680m 5°C 5_4 0cm 69% 4mph 5mph 1007mB
9:00 2549m 2°C 2_3 0cm 82% 3mph 3mph 1007mB
12:00 2343m 5°C 5_3 0cm 89% 3mph 3mph 1008mB
15:00 2143m 6°C 6_4 0cm 100% 4mph 5mph 1006mB
18:00 2355m 9°C 9_6 0cm 100% 6mph 8mph 1006mB
21:00 2302m 8°C 8_7 0cm 100% 7mph 11mph 1005mB
0:00 2425m 8°C 8_6 0cm 100% 6mph 12mph 1005mB
3:00 2469m 5°C 5_3 0cm 100% 3mph 5mph 1007mB
6:00 2439m 3°C 3_1 0cm 100% 1mph 2mph 1011mB
9:00 2368m 3°C 3_2 0cm 100% 2mph 3mph 1011mB
12:00 2248m 4°C 4_4 0cm 100% 4mph 6mph 1013mB
15:00 2239m 4°C 4_4 0cm 100% 4mph 6mph 1013mB
18:00 2450m 5°C 5_3 0cm 99% 3mph 5mph 1014mB
21:00 2704m 6°C 6_2 0cm 100% 2mph 5mph 1014mB
0:00 2982m 6°C 6_5 0cm 97% 5mph 10mph 1014mB
3:00 2945m 9°C 9_4 0cm 100% 4mph 6mph 1015mB
6:00 2833m 6°C 6_4 0cm 100% 4mph 5mph 1017mB
9:00 2887m 3°C 3_3 0cm 80% 3mph 4mph 1017mB
12:00 2840m 6°C 6_3 0cm 58% 3mph 4mph 1018mB
15:00 2800m 12°C 12_0 0cm 11% 0mph 2mph 1017mB
18:00 2915m 16°C 16_4 0cm 20% 4mph 4mph 1015mB
21:00 3101m 15°C 15_3 0cm 49% 3mph 6mph 1012mB
0:00 3175m 13°C 13_3 0cm 74% 3mph 7mph 1011mB
3:00 3128m 10°C 10_3 0cm 100% 3mph 3mph 1012mB
6:00 3056m 8°C 8_3 0cm 100% 3mph 4mph 1013mB
9:00 2997m 6°C 6_3 0cm 100% 3mph 4mph 1013mB
12:00 3006m 8°C 8_3 0cm 100% 3mph 3mph 1013mB
15:00 2980m 9°C 9_3 0cm 100% 3mph 4mph 1013mB
18:00 3027m 14°C 14_1 0cm 100% 1mph 3mph 1012mB
21:00 3050m 7°C 7_5 0cm 99% 5mph 6mph 1011mB
0:00 3265m 7°C 7_4 0cm 89% 4mph 5mph 1009mB
3:00 3317m 9°C 9_2 0cm 84% 2mph 3mph 1009mB
6:00 3132m 7°C 7_1 0cm 92% 1mph 2mph 1010mB
9:00 3093m 6°C 6_1 0cm 100% 1mph 2mph 1009mB
12:00 3137m 7°C 7_3 0cm 100% 3mph 4mph 1009mB
15:00 3054m 10°C 10_5 0cm 100% 5mph 7mph 1009mB
18:00 3272m 13°C 13_4 0cm 69% 4mph 5mph 1008mB
21:00 3431m 13°C 13_5 0cm 32% 5mph 6mph 1007mB
0:00 3470m 13°C 13_5 0cm 58% 5mph 6mph 1006mB
3:00 3520m 10°C 10_3 0cm 100% 3mph 4mph 1008mB
6:00 3563m 7°C 7_3 0cm 100% 3mph 3mph 1011mB
9:00 3555m 5°C 5_3 0cm 98% 3mph 4mph 1012mB
12:00 3477m 7°C 7_3 0cm 49% 3mph 3mph 1013mB
15:00 3505m 12°C 12_3 0cm 4% 3mph 5mph 1012mB
18:00 3311m 18°C 18_4 0cm 19% 4mph 9mph 1011mB
21:00 3579m 18°C 18_8 0cm 78% 8mph 12mph 1011mB
0:00 3675m 18°C 18_6 0cm 60% 6mph 11mph 1009mB
3:00 3931m 14°C 14_4 0cm 43% 4mph 5mph 1010mB
6:00 3941m 8°C 8_2 0cm 65% 2mph 2mph 1012mB
Afternoon 1.10417mm 0 3766m 20°C 20_7 0cm 100% 7mph 11mph 1011mB
Morning 0.0416667mm 0 3440m 8°C 8_4 0cm 9% 4mph 5mph 1013mB
Afternoon 0.5625mm 0 3455m 18°C 18_8 0cm 3% 8mph 21mph 1010mB
Morning 0.0625mm 0 3234m 6°C 6_5 0cm 9% 5mph 5mph 1012mB
Afternoon 0.0208333mm 0 3111m 15°C 15_8 0cm 29% 8mph 15mph 1011mB
Morning 0.0208333mm 0 3070m 4°C 4_3 0cm 83% 3mph 3mph 1015mB
Afternoon 0.0416667mm 0 3115m 17°C 17_4 0cm 0% 4mph 5mph 1015mB
Morning 3.27083mm 1.75 3175m 5°C 5_3 0cm 56% 3mph 3mph 1015mB
Afternoon 0.0208333mm 1.125 2924m 10°C 10_5 0cm 96% 5mph 3mph 1016mB
Morning 0.104167mm 0 3388m 5°C 5_2 0cm 68% 2mph 3mph 1017mB
Afternoon 0.208333mm 0 3431m 20°C 20_2 0cm 18% 2mph 5mph 1015mB
Morning 0mm 0 3659m 9°C 9_3 0cm 29% 3mph 4mph 1015mB

16 day outlook at a glance

Forecast issued: 6/16/2019 2:33:38 PM

Chat

Your comments and questions. In a resort? Let us know what it's like!


Characters left 250

For terms and conditions see Readers Comments on the Cookie and privacy policy page.